Home > Weather > Sunnyvale > Past weeks

Flag for USA Weather for the Past 2 Weeks in Sunnyvale, California, USA

Now
58 °F

Overcast.


Feels Like: 58 °F
Forecast: 53 / 76 °F
Wind: No wind

Location: Moffett Field

Current Time: May 2, 2016 at 4:09:41 AM

Latest Report: May 2, 2016 at 3:56 AM


Visibility: 9 mi

Pressure: 29.99 "Hg

Humidity: 84%

Dew Point: 53 °F

Location of SunnyvaleLocation

Historic Weather in Sunnyvale — Graph

°F

Sunnyvale Temperature Yesterday

Maximum temperature yesterday: 83 °F (at 2:56 PM)
Minimum temperature yesterday: 56 °F (at 6:56 AM)
Average temperature yesterday: 68 °F

High & Low Weather Summary for the Past Weeks

 TemperatureHumidityPressure
High86 °F (Apr 18, 2:56 PM)87% (Apr 22, 6:56 AM)30.22 "Hg (Apr 22, 6:56 AM)
Low46 °F (Apr 26, 4:56 AM)19% (Apr 19, 1:56 PM)29.81 "Hg (May 1, 2:56 AM)
Average62 °F56%29.99 "Hg
* Reported Apr 17 2:56 AM — May 2 2:56 AM, Sunnyvale, Weather by CustomWeather, © 2016

Note: Actual official high and low records may vary slightly from our data, if they occured in-between our weather recording intervals... More about our weather records

Advertising

Sunnyvale Weather History for the Previous 24 Hours

Scroll right to see more
 ConditionsComfort  
Time TempWeatherWind HumidityBarometerVisibility
2:56 AM
Mon, May 2
57 °FClear.No wind72%29.98 "Hg10 mi
1:56 AM58 °FClear.No wind84%29.98 "Hg9 mi
12:56 AM61 °FClear.No wind70%29.98 "Hg10 mi
11:56 PM
Sun, May 1
62 °FClear.5 mph65%29.97 "Hg10 mi
10:56 PM64 °FPassing clouds.3 mph58%29.96 "Hg10 mi
9:56 PM64 °FPassing clouds.7 mph61%29.94 "Hg10 mi
8:56 PM64 °FPassing clouds.7 mph63%29.92 "Hg10 mi
7:56 PM67 °FSunny.10 mph61%29.88 "Hg10 mi
6:56 PM72 °FSunny.14 mph55%29.84 "Hg10 mi
5:56 PM78 °FSunny.14 mph42%29.83 "Hg10 mi
4:56 PM82 °FSunny.13 mph28%29.83 "Hg10 mi
3:56 PM79 °FSunny.14 mph30%29.82 "Hg10 mi
2:56 PM83 °FSunny.13 mph24%29.83 "Hg10 mi
1:56 PM82 °FSunny.9 mph24%29.83 "Hg10 mi
12:56 PM79 °FSunny.3 mph27%29.83 "Hg10 mi
11:56 AM78 °FSunny.7 mph29%29.84 "Hg10 mi
10:56 AM74 °FSunny.No wind37%29.85 "Hg10 mi
9:56 AM73 °FSunny.3 mph36%29.85 "Hg10 mi
8:56 AM67 °FSunny.3 mph45%29.85 "Hg10 mi
7:56 AM62 °FSunny.No wind54%29.85 "Hg10 mi
6:56 AM56 °FClear.3 mph65%29.83 "Hg10 mi
5:56 AM57 °FClear.No wind62%29.82 "Hg10 mi
4:56 AM57 °FClear.5 mph62%29.83 "Hg10 mi
Weather by CustomWeather, © 2016

See weather overviewHow to use our weather pages